| time (UTC) | temp C | wind direction | speed KPH | gust KPH | rain 1hr cm | rain 24hr cm | rain mn cm | humidity % | barometer mb |
| 20260905020006 | 30 | 299 | 0.0 | 0.0 | 0.00 | 0.00 | 0.00 | 74 | 1013.5 |
| 20260905014504 | 30 | 299 | 0.0 | 0.0 | 0.00 | 0.00 | 0.00 | 73 | 1013.3 |
| 20260905013006 | 30 | 299 | 0.0 | 0.0 | 0.00 | 0.00 | 0.00 | 72 | 1013.1 |
| 20260905011506 | 30 | 299 | 0.0 | 0.0 | 0.00 | 0.00 | 0.00 | 70 | 1012.9 |
| 20260905010018 | 31 | 299 | 0.0 | 0.0 | 0.00 | 0.00 | 0.00 | 69 | 1012.8 |
| 20260905004521 | 31 | 299 | 0.0 | 0.0 | 0.00 | 0.00 | 0.00 | 67 | 1012.8 |
| 20260905003026 | 32 | 299 | 0.0 | 0.0 | 0.00 | 0.00 | 0.00 | 65 | 1012.8 |
| 20260905001527 | 32 | 299 | 0.0 | 0.0 | 0.00 | 0.00 | 0.00 | 64 | 1012.7 |
| 20260905000025 | 32 | 299 | 0.0 | 0.0 | 0.00 | 0.00 | 0.00 | 62 | 1012.7 |
| 20260904234514 | 33 | 299 | 0.0 | 0.0 | 0.00 | 0.00 | 0.00 | 61 | 1012.7 |
| 20260904233007 | 33 | 293 | 0.0 | 1.6 | 0.00 | 0.00 | 0.00 | 59 | 1012.7 |
| 20260904231526 | 33 | 293 | 0.0 | 3.2 | 0.00 | 0.00 | 0.00 | 58 | 1012.6 |
| 20260904230032 | 34 | 67 | 0.0 | 3.2 | 0.00 | 0.00 | 0.00 | 57 | 1012.6 |
| 20260904224523 | 35 | 340 | 0.0 | 8.0 | 0.00 | 0.00 | 0.00 | 56 | 1012.3 |
| 20260904223011 | 35 | 235 | 0.0 | 3.2 | 0.00 | 0.00 | 0.00 | 55 | 1012.2 |
| 20260904221506 | 35 | 15 | 1.6 | 6.4 | 0.00 | 0.00 | 0.00 | 53 | 1012.3 |
| 20260904220008 | 35 | 330 | 1.6 | 4.8 | 0.00 | 0.00 | 0.00 | 54 | 1012.4 |
| 20260904214512 | 35 | 127 | 0.0 | 8.0 | 0.00 | 0.00 | 0.00 | 54 | 1012.4 |
| 20260904213007 | 35 | 103 | 0.0 | 4.8 | 0.00 | 0.00 | 0.00 | 55 | 1012.3 |
| 20260904211506 | 34 | 75 | 0.0 | 8.0 | 0.00 | 0.00 | 0.00 | 57 | 1012.3 |
| 20260904210004 | 33 | 11 | 1.6 | 9.7 | 0.00 | 0.00 | 0.00 | 60 | 1012.3 |
| 20260904204505 | 33 | 354 | 1.6 | 6.4 | 0.00 | 0.00 | 0.00 | 58 | 1012.4 |
| 20260904203004 | 33 | 114 | 1.6 | 8.0 | 0.00 | 0.00 | 0.00 | 61 | 1012.5 |
| 20260904201504 | 33 | 333 | 1.6 | 8.0 | 0.00 | 0.00 | 0.00 | 60 | 1012.8 |
| 20260904200003 | 34 | 19 | 1.6 | 6.4 | 0.00 | 0.00 | 0.00 | 57 | 1012.8 |
| 20260904194503 | 35 | 334 | 1.6 | 8.0 | 0.00 | 0.00 | 0.00 | 55 | 1013.0 |
| 20260904193009 | 35 | 7 | 1.6 | 11.3 | 0.00 | 0.00 | 0.00 | 58 | 1012.9 |
| 20260904191504 | 35 | 351 | 1.6 | 9.7 | 0.00 | 0.00 | 0.00 | 56 | 1012.7 |
| 20260904190004 | 34 | 9 | 0.0 | 9.7 | 0.00 | 0.00 | 0.00 | 59 | 1012.8 |
| 20260904184503 | 33 | 157 | 1.6 | 8.0 | 0.00 | 0.00 | 0.00 | 58 | 1012.8 |
| 20260904183004 | 33 | 306 | 0.0 | 9.7 | 0.00 | 0.00 | 0.00 | 60 | 1013.1 |
| 20260904181505 | 33 | 227 | 1.6 | 9.7 | 0.00 | 0.00 | 0.00 | 60 | 1013.1 |
| 20260904180004 | 32 | 187 | 1.6 | 11.3 | 0.00 | 0.00 | 0.00 | 61 | 1013.2 |
| 20260904174509 | 32 | 223 | 1.6 | 6.4 | 0.00 | 0.00 | 0.00 | 61 | 1013.4 |
| 20260904173011 | 31 | 313 | 1.6 | 12.9 | 0.00 | 0.00 | 0.00 | 64 | 1013.5 |
| 20260904171506 | 31 | 34 | 3.2 | 9.7 | 0.00 | 0.00 | 0.00 | 64 | 1013.4 |
| 20260904170012 | 31 | 330 | 1.6 | 8.0 | 0.00 | 0.00 | 0.00 | 66 | 1013.5 |
| 20260904164512 | 31 | 1 | 1.6 | 9.7 | 0.00 | 0.00 | 0.00 | 67 | 1013.4 |
| 20260904163007 | 30 | 358 | 1.6 | 8.0 | 0.00 | 0.00 | 0.00 | 66 | 1013.4 |
| 20260904161505 | 30 | 14 | 3.2 | 11.3 | 0.00 | 0.00 | 0.00 | 68 | 1013.5 |
| 20260904160012 | 29 | 4 | 1.6 | 8.0 | 0.00 | 0.00 | 0.00 | 71 | 1013.6 |
| 20260904154522 | 28 | 7 | 1.6 | 8.0 | 0.00 | 0.00 | 0.00 | 72 | 1013.4 |
| 20260904153020 | 28 | 344 | 1.6 | 4.8 | 0.00 | 0.00 | 0.00 | 72 | 1013.5 |
| 20260904151518 | 28 | 342 | 0.0 | 3.2 | 0.00 | 0.00 | 0.00 | 74 | 1013.5 |
| 20260904150027 | 27 | 329 | 1.6 | 8.0 | 0.00 | 0.00 | 0.00 | 75 | 1013.6 |
| 20260904144510 | 27 | 345 | 0.0 | 9.7 | 0.00 | 0.00 | 0.00 | 77 | 1013.3 |
| 20260904143020 | 26 | 135 | 0.0 | 8.0 | 0.00 | 0.00 | 0.00 | 80 | 1013.3 |
| 20260904141533 | 25 | 135 | 1.6 | 9.7 | 0.00 | 0.00 | 0.00 | 82 | 1013.3 |
| 20260904140046 | 25 | 196 | 0.0 | 4.8 | 0.00 | 0.00 | 0.00 | 84 | 1013.5 |
| 20260904134527 | 24 | 135 | 0.0 | 0.0 | 0.00 | 0.00 | 0.00 | 86 | 1013.3 |
| 20260904133006 | 23 | 135 | 0.0 | 0.0 | 0.00 | 0.00 | 0.00 | 87 | 1013.3 |
| 20260904131503 | 23 | 135 | 0.0 | 0.0 | 0.00 | 0.00 | 0.00 | 87 | 1013.4 |
| 20260904130004 | 23 | 135 | 0.0 | 0.0 | 0.00 | 0.00 | 0.00 | 87 | 1013.1 |
| 20260904124506 | 23 | 135 | 0.0 | 0.0 | 0.00 | 0.00 | 0.00 | 87 | 1013.0 |
| 20260904123006 | 22 | 135 | 0.0 | 0.0 | 0.00 | 0.00 | 0.00 | 87 | 1013.0 |
| 20260904121504 | 22 | 135 | 0.0 | 0.0 | 0.00 | 0.00 | 0.00 | 86 | 1012.9 |
| 20260904120010 | 22 | 135 | 0.0 | 0.0 | 0.00 | 0.00 | 0.00 | 86 | 1012.9 |
| 20260904114511 | 22 | 135 | 0.0 | 0.0 | 0.00 | 0.00 | 0.00 | 85 | 1012.8 |
| 20260904113009 | 22 | 135 | 0.0 | 0.0 | 0.00 | 0.00 | 0.00 | 85 | 1012.6 |
| 20260904111505 | 23 | 135 | 0.0 | 0.0 | 0.00 | 0.00 | 0.00 | 85 | 1012.4 |
| 20260904110006 | 23 | 135 | 0.0 | 0.0 | 0.00 | 0.00 | 0.00 | 84 | 1012.4 |
| 20260904104505 | 23 | 135 | 0.0 | 0.0 | 0.00 | 0.00 | 0.00 | 84 | 1012.3 |
| 20260904103005 | 23 | 135 | 0.0 | 0.0 | 0.00 | 0.00 | 0.00 | 84 | 1012.3 |
| 20260904101506 | 23 | 135 | 0.0 | 0.0 | 0.00 | 0.00 | 0.00 | 84 | 1012.2 |
| 20260904100008 | 23 | 135 | 0.0 | 0.0 | 0.00 | 0.00 | 0.00 | 84 | 1012.1 |
| 20260904094520 | 23 | 135 | 0.0 | 0.0 | 0.00 | 0.00 | 0.00 | 83 | 1012.0 |
| 20260904093008 | 23 | 135 | 0.0 | 0.0 | 0.00 | 0.00 | 0.00 | 82 | 1011.9 |
| 20260904091504 | 23 | 135 | 0.0 | 0.0 | 0.00 | 0.00 | 0.00 | 82 | 1012.0 |
| 20260904090006 | 23 | 135 | 0.0 | 0.0 | 0.00 | 0.00 | 0.00 | 81 | 1011.8 |
| 20260904084504 | 23 | 135 | 0.0 | 0.0 | 0.00 | 0.00 | 0.00 | 81 | 1011.7 |
| 20260904083004 | 24 | 135 | 0.0 | 0.0 | 0.00 | 0.00 | 0.00 | 81 | 1011.5 |
| 20260904081507 | 24 | 135 | 0.0 | 0.0 | 0.00 | 0.00 | 0.00 | 81 | 1011.5 |
| 20260904080010 | 24 | 135 | 0.0 | 0.0 | 0.00 | 0.00 | 0.00 | 80 | 1011.5 |
| 20260904074508 | 24 | 135 | 0.0 | 0.0 | 0.00 | 0.00 | 0.00 | 80 | 1011.7 |
| 20260904073028 | 25 | 135 | 0.0 | 0.0 | 0.00 | 0.00 | 0.00 | 79 | 1011.8 |
| 20260904071530 | 25 | 135 | 0.0 | 0.0 | 0.00 | 0.00 | 0.00 | 79 | 1011.8 |
| 20260904070015 | 25 | 135 | 0.0 | 0.0 | 0.00 | 0.00 | 0.00 | 79 | 1011.9 |
| 20260904064523 | 25 | 135 | 0.0 | 0.0 | 0.00 | 0.00 | 0.00 | 78 | 1011.9 |
| 20260904063026 | 25 | 135 | 0.0 | 0.0 | 0.00 | 0.00 | 0.00 | 78 | 1011.9 |
| 20260904061524 | 25 | 135 | 0.0 | 0.0 | 0.00 | 0.00 | 0.00 | 78 | 1012.0 |
| 20260904060012 | 25 | 135 | 0.0 | 0.0 | 0.00 | 0.00 | 0.00 | 78 | 1011.9 |
| 20260904054511 | 25 | 135 | 0.0 | 0.0 | 0.00 | 0.00 | 0.00 | 77 | 1011.9 |
| 20260904053017 | 25 | 135 | 0.0 | 0.0 | 0.00 | 0.00 | 0.00 | 76 | 1011.9 |
| 20260904051526 | 26 | 135 | 0.0 | 0.0 | 0.00 | 0.00 | 0.00 | 76 | 1011.9 |
| 20260904050039 | 26 | 135 | 0.0 | 0.0 | 0.00 | 0.00 | 0.00 | 75 | 1012.0 |
| 20260904044529 | 26 | 135 | 0.0 | 0.0 | 0.00 | 0.00 | 0.00 | 75 | 1012.0 |
| 20260904043015 | 26 | 135 | 0.0 | 0.0 | 0.00 | 0.00 | 0.00 | 74 | 1012.0 |
| 20260904041521 | 26 | 135 | 0.0 | 0.0 | 0.00 | 0.00 | 0.00 | 73 | 1012.1 |
| 20260904040031 | 27 | 135 | 0.0 | 0.0 | 0.00 | 0.00 | 0.00 | 73 | 1012.1 |
| 20260904034531 | 27 | 135 | 0.0 | 0.0 | 0.00 | 0.00 | 0.00 | 73 | 1012.0 |
| 20260904033035 | 27 | 135 | 0.0 | 0.0 | 0.00 | 0.00 | 0.00 | 72 | 1011.9 |
| 20260904031523 | 27 | 135 | 0.0 | 1.6 | 0.00 | 0.00 | 0.00 | 72 | 1012.0 |
| 20260904030023 | 27 | 135 | 0.0 | 3.2 | 0.00 | 0.00 | 0.00 | 71 | 1011.8 |
| 20260904024505 | 27 | 135 | 0.0 | 3.2 | 0.00 | 0.00 | 0.00 | 71 | 1011.8 |
| 20260904023013 | 28 | 135 | 0.0 | 0.0 | 0.00 | 0.00 | 0.00 | 70 | 1011.7 |
| 20260904021519 | 28 | 135 | 0.0 | 4.8 | 0.00 | 0.00 | 0.00 | 70 | 1011.7 |